[Iaude] MPEC N119: 2024 NS2 [a=1.66,e=0.22,i=2.5,H=22.4]
    mpec at cfa.harvard.edu 
    mpec at cfa.harvard.edu
       
    Tue Jul  9 10:30:38 EDT 2024
    
    
  
M.P.E.C. 2024-N119                                 Issued 2024 July 9, 14:28 UT
     The Minor Planet Electronic Circulars contain information on unusual
         minor planets, routine data on comets and natural satellites,
         and occasional editorial announcements.  They are published
    on behalf of Division F of the International Astronomical Union by the
          Minor Planet Center, Smithsonian Astrophysical Observatory,
                          Cambridge, MA 02138, U.S.A.
			  
             Prepared using the Tamkin Foundation Computer Network
                              MPC at CFA.HARVARD.EDU
            URL https://www.minorplanetcenter.net/    ISSN 1523-6714
                                    2024 NS2                                    
Observations:
     K24N02S  C2024 06 28.56535421 35 17.053-19 36 25.64         21.84GVEN119F52
     K24N02S  C2024 06 28.59300221 35 19.236-19 36 27.10         22.12GVEN119F52
     K24N02S  C2024 07 02.55718921 40 44.944-19 42 14.70         22.80GVEN119F51
     K24N02S  C2024 07 02.56694821 40 45.624-19 42 15.71         23.04GVEN119F51
     K24N02S  C2024 07 02.57671621 40 46.300-19 42 17.01         21.84GVEN119F51
     K24N02S  C2024 07 02.58647021 40 47.006-19 42 17.98         22.34GVEN119F51
     K24N02S* C2024 07 06.54133621 45 42.331-19 51 24.71         22.07wXEN119F51
     K24N02S  C2024 07 06.56259821 45 43.638-19 51 28.13         22.41wXEN119F51
     K24N02S  C2024 07 06.57251721 45 44.244-19 51 29.79         22.03wXEN119F51
     K24N02S 7C2024 07 07.08774421 46 20.838-19 53 00.30         20.5 GVEN119Z84
     K24N02S 7C2024 07 07.11432221 46 22.468-19 53 04.89         20.9 GVEN119Z84
     K24N02S KC2024 07 09.32227 21 48 51.67 -19 59 51.7                VEN119691
     K24N02S KC2024 07 09.32900 21 48 52.10 -19 59 53.0          21.7 RVEN119691
     K24N02S KC2024 07 09.33573 21 48 52.48 -19 59 54.8          21.7 RVEN119691
     K24N02S 3C2024 07 09.55539221 49 05.844-20 00 36.03         22.55GVEN119T14
     K24N02S 3C2024 07 09.55636821 49 05.899-20 00 36.24         22.32GVEN119T14
     K24N02S 3C2024 07 09.55734421 49 05.954-20 00 36.28         21.99GVEN119T14
     K24N02S 3C2024 07 09.55832821 49 06.004-20 00 36.55         22.16GVEN119T14
     K24N02S 3C2024 07 09.55930521 49 06.062-20 00 36.75         22.09GVEN119T14
     K24N02S 3C2024 07 09.56028721 49 06.113-20 00 36.92         22.00GVEN119T14
Observer details:
691 Steward Observatory, Kitt Peak-Spacewatch.  Observer T. H. Bressi.  0.9-m
    f/3 reflector + CCD.
F51 Pan-STARRS 1, Haleakala.  Observers J. Herman, T. Lowe, P. Minguez, A.
    Schultz, I. Smith.  Measurers K. Chambers, T. de Boer, J. Fairlamb, H.
    Gao, M. Huber, C.-C. Lin, E. Magnier, Y. Ramanjooloo, R. Wainscoat, R.
    Weryk.  1.8-m Ritchey-Chretien + CCD.
F52 Pan-STARRS 2, Haleakala.  Observers J. Herman, T. Lowe, P. Minguez, A.
    Schultz, I. Smith.  Measurers K. Chambers, T. de Boer, J. Fairlamb, H.
    Gao, M. Huber, C.-C. Lin, E. Magnier, Y. Ramanjooloo, R. Wainscoat, R.
    Weryk.  1.8-m Ritchey-Chretien + CCD.
T14 Canada-France-Hawaii Telescope, Maunakea.  Observers R. Wainscoat, L.
    Wells, V. Khatu.  Measurers R. Weryk, R. Wainscoat.  3.6-m f/4.1 reflector
    + CCD.
Z84 Calar Alto-Schmidt.  Observers F. Ocana, R. Kresken, M. Micheli, L.
    Conversi.  Measurers F. Ocana, M. Micheli.  0.8-m f/3 Schmidt + CCD.
Orbital elements:
2024 NS2                                                 Earth MOID = 0.2868 AU
Epoch 2024 Mar. 31.0 TT = JDT 2460400.5                 MPC                     
M 290.34971              (2000.0)            P               Q                  
n   0.46168294     Peri.  262.69359     +0.89112462     +0.45191774             
a   1.6579579      Node    70.43239     -0.39734567     +0.82062529             
e   0.2200142      Incl.    2.48369     -0.21911944     +0.34977778             
P   2.13           H   22.47          G   0.15           U   8                  
Residuals in seconds of arc
240628 F52  0.3-  0.0     240706 F51  0.0   0.1+    240709 T14  0.1+  0.1+
240628 F52  0.4+  0.2+    240706 F51  0.0   0.0     240709 T14  0.1+  0.1+
240702 F51  0.1-  0.1-    240707 Z84  0.0   0.0     240709 T14  0.1+  0.2+
240702 F51  0.1-  0.0     240707 Z84  0.1-  0.1+    240709 T14  0.0   0.1+
240702 F51  0.2-  0.2-    240709 691  0.4-  0.1-    240709 T14  0.1+  0.1+
240702 F51  0.2+  0.2-    240709 691  0.2+  0.0     240709 T14  0.1+  0.2+
240706 F51  0.0   0.0     240709 691  0.1+  0.3-
Ephemeris:
2024 NS2                 a,e,i = 1.66, 0.22, 2                   q = 1.2932
Date    TT    R. A. (2000) Decl.     Delta      r    Elong.  Phase     V
2024 06 09    21 02 48.7 -19 48 00   0.5463  1.4067   125.9    35.8    23.4
...
2024 06 24    21 28 28.9 -19 33 26   0.4529  1.3713   134.2    32.1    22.8
...
2024 07 02    21 40 00.9 -19 41 00   0.4108  1.3545   139.2    29.4    22.5
...
2024 07 08    21 47 23.1 -19 55 22   0.3829  1.3430   143.2    27.0    22.2
2024 07 09    21 48 29.8 -19 58 31   0.3786  1.3412   143.9    26.5    22.2
2024 07 10    21 49 34.4 -20 01 52   0.3743  1.3394   144.6    26.1    22.2
...
2024 07 16    21 55 16.7 -20 26 15   0.3509  1.3293   148.9    23.3    21.9
...
2024 07 24    22 00 47.2 -21 08 39   0.3251  1.3176   155.0    19.0    21.6
...
2024 08 08    22 04 26.4 -22 42 42   0.2943  1.3016   166.1    10.8    21.1
A. U. Tomatic                (C) Copyright 2024 MPC           M.P.E.C. 2024-N119
    
    
More information about the Iaude
mailing list